TimeEST,TemperatureF,Dew PointF,Humidity,Sea Level PressureIn,VisibilityMPH,Wind Direction,Wind SpeedMPH,Gust SpeedMPH,PrecipitationIn,Events,Conditions,WindDirDegrees,DateUTC
12:15 AM,69.8,64.4,83,30.09,10.0,North,9.2,-,N/A,,Overcast,10,2012-11-18 05:15:00
12:35 AM,71.6,64.4,78,30.08,10.0,NNE,8.1,-,N/A,,Overcast,30,2012-11-18 05:35:00
12:55 AM,73.4,64.4,73,30.08,10.0,NE,12.7,16.1,N/A,,Mostly Cloudy,50,2012-11-18 05:55:00
1:15 AM,73.4,64.4,73,30.08,10.0,NE,9.2,-,N/A,,Overcast,50,2012-11-18 06:15:00
1:35 AM,71.6,64.4,78,30.07,10.0,ENE,9.2,-,N/A,,Mostly Cloudy,60,2012-11-18 06:35:00
1:55 AM,71.6,64.4,78,30.07,10.0,NNE,6.9,-,N/A,,Mostly Cloudy,30,2012-11-18 06:55:00
2:15 AM,71.6,64.4,78,30.07,10.0,NNE,9.2,-,N/A,,Mostly Cloudy,20,2012-11-18 07:15:00
2:35 AM,73.4,64.4,73,30.07,10.0,NNE,8.1,-,N/A,,Mostly Cloudy,20,2012-11-18 07:35:00
2:55 AM,71.6,64.4,78,30.07,10.0,NNE,8.1,-,N/A,,Mostly Cloudy,20,2012-11-18 07:55:00
3:15 AM,71.6,64.4,78,30.06,10.0,North,8.1,-,N/A,,Scattered Clouds,10,2012-11-18 08:15:00
3:35 AM,71.6,64.4,78,30.06,10.0,North,6.9,-,N/A,,Clear,10,2012-11-18 08:35:00
3:55 AM,71.6,64.4,78,30.06,10.0,NNE,5.8,-,N/A,,Mostly Cloudy,30,2012-11-18 08:55:00
4:15 AM,71.6,64.4,78,30.06,10.0,NNE,10.4,-,N/A,,Overcast,20,2012-11-18 09:15:00
4:35 AM,71.6,64.4,78,30.06,10.0,NE,5.8,-,N/A,,Mostly Cloudy,40,2012-11-18 09:35:00
4:55 AM,68.0,62.6,83,30.07,10.0,WNW,4.6,-,N/A,,Mostly Cloudy,290,2012-11-18 09:55:00
5:15 AM,66.2,62.6,88,30.07,10.0,WNW,5.8,-,N/A,,Mostly Cloudy,300,2012-11-18 10:15:00
7:47 AM,68.0,64.4,88,30.11,7.0,NNW,6.9,-,N/A,,Mostly Cloudy,340,2012-11-18 12:47:00
8:08 AM,68.0,66.2,94,30.11,5.0,NNW,6.9,-,N/A,,Haze,340,2012-11-18 13:08:00
8:47 AM,71.6,68.0,88,30.11,5.0,North,13.8,-,N/A,,Mostly Cloudy,350,2012-11-18 13:47:00
9:47 AM,73.4,66.2,78,30.13,7.0,North,13.8,-,N/A,,Mostly Cloudy,350,2012-11-18 14:47:00
10:47 AM,73.4,66.2,78,30.12,7.0,North,19.6,-,N/A,,Scattered Clouds,350,2012-11-18 15:47:00
11:47 AM,75.2,68.0,78,30.11,7.0,North,15.0,-,N/A,,Scattered Clouds,350,2012-11-18 16:47:00
12:47 PM,75.2,66.2,73,30.09,7.0,North,18.4,-,N/A,,Scattered Clouds,350,2012-11-18 17:47:00
1:47 PM,75.2,66.2,73,30.09,7.0,North,13.8,25.3,N/A,,Scattered Clouds,360,2012-11-18 18:47:00
2:47 PM,73.4,64.4,73,30.08,7.0,North,20.7,-,N/A,,Scattered Clouds,10,2012-11-18 19:47:00
3:47 PM,71.6,64.4,78,30.08,7.0,NNW,15.0,-,N/A,,Scattered Clouds,340,2012-11-18 20:47:00
4:47 PM,71.6,64.4,78,30.08,7.0,NNW,10.4,-,N/A,,Scattered Clouds,340,2012-11-18 21:47:00
5:47 PM,71.6,64.4,78,30.09,7.0,North,16.1,25.3,N/A,,Mostly Cloudy,350,2012-11-18 22:47:00
7:15 PM,68.0,64.4,88,30.13,7.0,North,11.5,17.3,N/A,,Mostly Cloudy,350,2012-11-19 00:15:00
7:35 PM,68.0,64.4,88,30.14,10.0,North,11.5,19.6,N/A,,Mostly Cloudy,350,2012-11-19 00:35:00
7:55 PM,68.0,64.4,88,30.14,10.0,North,13.8,21.9,N/A,,Mostly Cloudy,360,2012-11-19 00:55:00
8:15 PM,68.0,62.6,83,30.15,10.0,North,12.7,21.9,N/A,,Scattered Clouds,360,2012-11-19 01:15:00
8:35 PM,68.0,62.6,83,30.15,10.0,North,13.8,19.6,N/A,,Scattered Clouds,350,2012-11-19 01:35:00
9:15 PM,68.0,62.6,83,30.15,10.0,North,13.8,20.7,N/A,,Scattered Clouds,360,2012-11-19 02:15:00
9:35 PM,68.0,62.6,83,30.15,10.0,North,11.5,20.7,N/A,,Scattered Clouds,350,2012-11-19 02:35:00
9:55 PM,68.0,62.6,83,30.15,10.0,North,11.5,21.9,N/A,,Clear,350,2012-11-19 02:55:00
10:15 PM,68.0,62.6,83,30.15,10.0,North,10.4,17.3,N/A,,Clear,350,2012-11-19 03:15:00
10:35 PM,68.0,60.8,78,30.15,10.0,North,11.5,20.7,N/A,,Clear,360,2012-11-19 03:35:00
10:55 PM,68.0,60.8,78,30.15,10.0,North,10.4,20.7,N/A,,Clear,360,2012-11-19 03:55:00
11:35 PM,66.2,60.8,83,30.14,10.0,North,12.7,19.6,N/A,,Clear,360,2012-11-19 04:35:00